TimeCDT,TemperatureF,Dew PointF,Humidity,Sea Level PressureIn,VisibilityMPH,Wind Direction,Wind SpeedMPH,Gust SpeedMPH,PrecipitationIn,Events,Conditions,WindDirDegrees,DateUTC
12:04 AM,26.6,24.8,93,29.84,10.0,Calm,Calm,-,N/A,,Scattered Clouds,0,2012-10-15 05:04:00
12:13 AM,26.6,24.8,93,29.85,10.0,Calm,Calm,-,N/A,,Mostly Cloudy,0,2012-10-15 05:13:00
12:37 AM,26.6,24.8,93,29.85,1.8,Calm,Calm,-,N/A,,Overcast,0,2012-10-15 05:37:00
12:48 AM,24.8,23.0,93,29.85,0.8,Calm,Calm,-,N/A,,Overcast,0,2012-10-15 05:48:00
12:53 AM,26.1,23.0,88,29.89,0.5,Calm,Calm,-,N/A,Fog,Light Freezing Fog,0,2012-10-15 05:53:00
1:02 AM,26.6,24.8,93,29.85,1.2,Calm,Calm,-,N/A,,Mostly Cloudy,0,2012-10-15 06:02:00
1:09 AM,24.8,23.0,93,29.85,2.5,Calm,Calm,-,N/A,,Scattered Clouds,0,2012-10-15 06:09:00
1:25 AM,26.6,23.0,86,29.85,9.0,Calm,Calm,-,N/A,,Partly Cloudy,0,2012-10-15 06:25:00
1:53 AM,25.0,21.9,88,29.90,10.0,Calm,Calm,-,N/A,,Partly Cloudy,0,2012-10-15 06:53:00
2:28 AM,24.8,21.2,86,29.86,9.0,Calm,Calm,-,N/A,,Mostly Cloudy,0,2012-10-15 07:28:00
2:36 AM,26.6,21.2,80,29.86,1.8,Calm,Calm,-,N/A,,Mostly Cloudy,0,2012-10-15 07:36:00
2:45 AM,26.6,23.0,86,29.86,4.0,Calm,Calm,-,N/A,,Mostly Cloudy,0,2012-10-15 07:45:00
2:53 AM,25.0,21.9,88,29.90,6.0,Calm,Calm,-,N/A,,Scattered Clouds,0,2012-10-15 07:53:00
3:15 AM,24.8,21.2,86,29.86,1.8,Calm,Calm,-,N/A,,Clear,0,2012-10-15 08:15:00
3:24 AM,24.8,21.2,86,29.86,4.0,Calm,Calm,-,N/A,,Clear,0,2012-10-15 08:24:00
3:31 AM,24.8,21.2,86,29.86,10.0,Calm,Calm,-,N/A,,Scattered Clouds,0,2012-10-15 08:31:00
3:40 AM,24.8,21.2,86,29.86,10.0,Calm,Calm,-,N/A,,Mostly Cloudy,0,2012-10-15 08:40:00
3:53 AM,24.1,21.0,88,29.91,9.0,Calm,Calm,-,N/A,,Overcast,0,2012-10-15 08:53:00
4:33 AM,24.8,21.2,86,29.87,1.8,Calm,Calm,-,N/A,,Overcast,0,2012-10-15 09:33:00
4:42 AM,24.8,21.2,86,29.87,3.0,Calm,Calm,-,N/A,,Overcast,0,2012-10-15 09:42:00
4:53 AM,24.1,21.9,91,29.92,1.5,Calm,Calm,-,N/A,,Overcast,0,2012-10-15 09:53:00
4:55 AM,24.8,21.2,86,29.88,0.8,Calm,Calm,-,N/A,,Overcast,0,2012-10-15 09:55:00
5:29 AM,24.8,21.2,86,29.88,1.2,Calm,Calm,-,N/A,,Overcast,0,2012-10-15 10:29:00
5:32 AM,24.8,21.2,86,29.88,3.0,Calm,Calm,-,N/A,,Overcast,0,2012-10-15 10:32:00
5:38 AM,24.8,21.2,86,29.88,1.8,Calm,Calm,-,N/A,,Overcast,0,2012-10-15 10:38:00
5:42 AM,24.8,21.2,86,29.88,0.8,Calm,Calm,-,N/A,,Overcast,0,2012-10-15 10:42:00
5:53 AM,24.1,21.9,91,29.92,0.5,Calm,Calm,-,N/A,Fog,Light Freezing Fog,0,2012-10-15 10:53:00
6:02 AM,24.8,21.2,86,29.88,1.2,Calm,Calm,-,N/A,,Overcast,0,2012-10-15 11:02:00
6:05 AM,24.8,21.2,86,29.88,3.0,Calm,Calm,-,N/A,,Overcast,0,2012-10-15 11:05:00
6:14 AM,24.8,21.2,86,29.88,1.5,Calm,Calm,-,N/A,,Overcast,0,2012-10-15 11:14:00
6:18 AM,24.8,21.2,86,29.88,0.8,Calm,Calm,-,N/A,,Mist,0,2012-10-15 11:18:00
6:33 AM,24.8,21.2,86,29.89,1.2,Calm,Calm,-,N/A,,Overcast,0,2012-10-15 11:33:00
6:36 AM,24.8,21.2,86,29.89,4.0,Calm,Calm,-,N/A,,Overcast,0,2012-10-15 11:36:00
6:49 AM,21.2,19.4,93,29.89,1.8,Calm,Calm,-,N/A,,Overcast,0,2012-10-15 11:49:00
6:53 AM,23.0,19.9,88,29.94,1.2,Calm,Calm,-,N/A,,Overcast,0,2012-10-15 11:53:00
7:06 AM,24.8,21.2,86,29.90,0.8,Calm,Calm,-,N/A,,Overcast,0,2012-10-15 12:06:00
7:15 AM,23.0,21.2,93,29.90,1.2,Calm,Calm,-,N/A,,Overcast,0,2012-10-15 12:15:00
7:20 AM,23.0,19.4,86,29.90,0.8,Calm,Calm,-,N/A,,Mist,0,2012-10-15 12:20:00
7:45 AM,23.0,21.2,93,29.90,1.8,Calm,Calm,-,N/A,,Overcast,0,2012-10-15 12:45:00
7:53 AM,23.0,19.9,88,29.96,7.0,Calm,Calm,-,N/A,,Overcast,0,2012-10-15 12:53:00
8:35 AM,28.4,26.6,93,29.92,2.5,Calm,Calm,-,N/A,,Scattered Clouds,0,2012-10-15 13:35:00
8:43 AM,28.4,28.4,100,29.92,1.8,Calm,Calm,-,N/A,,Partly Cloudy,0,2012-10-15 13:43:00
8:47 AM,28.4,28.4,100,29.92,3.0,Calm,Calm,-,N/A,,Clear,0,2012-10-15 13:47:00
8:53 AM,30.0,28.9,96,29.97,6.0,Calm,Calm,-,N/A,,Clear,0,2012-10-15 13:53:00
9:53 AM,37.0,34.0,89,29.97,10.0,Calm,Calm,-,N/A,,Clear,0,2012-10-15 14:53:00
10:53 AM,46.9,33.1,59,29.98,10.0,Calm,Calm,-,N/A,,Clear,0,2012-10-15 15:53:00
11:53 AM,51.1,30.9,46,29.96,10.0,Calm,Calm,-,N/A,,Clear,0,2012-10-15 16:53:00
12:53 PM,54.0,33.1,45,29.94,10.0,Calm,Calm,-,N/A,,Clear,0,2012-10-15 17:53:00
1:53 PM,57.0,33.1,40,29.93,10.0,Variable,3.5,-,N/A,,Clear,0,2012-10-15 18:53:00
2:53 PM,57.0,33.1,40,29.91,10.0,SW,4.6,-,N/A,,Clear,230,2012-10-15 19:53:00
3:53 PM,55.9,34.0,44,29.90,10.0,Calm,Calm,-,N/A,,Clear,0,2012-10-15 20:53:00
4:53 PM,55.9,35.1,45,29.90,10.0,Calm,Calm,-,N/A,,Clear,0,2012-10-15 21:53:00
5:53 PM,51.1,37.0,59,29.89,10.0,Calm,Calm,-,N/A,,Clear,0,2012-10-15 22:53:00
6:53 PM,48.0,37.0,66,29.88,10.0,Calm,Calm,-,N/A,,Clear,0,2012-10-15 23:53:00
7:53 PM,46.9,37.0,68,29.88,10.0,Calm,Calm,-,N/A,,Overcast,0,2012-10-16 00:53:00
8:53 PM,50.0,36.0,59,29.87,10.0,Calm,Calm,-,N/A,,Overcast,0,2012-10-16 01:53:00
9:53 PM,51.1,37.0,59,29.86,10.0,South,3.5,-,N/A,,Overcast,190,2012-10-16 02:53:00
10:53 PM,51.1,36.0,56,29.83,10.0,South,3.5,-,0.00,,Overcast,170,2012-10-16 03:53:00
11:53 PM,51.1,35.1,54,29.80,10.0,South,5.8,-,N/A,,Mostly Cloudy,170,2012-10-16 04:53:00